| time (UTC) | temp F | wind direction | speed MPH | gust MPH | rain 1hr in | rain 24hr in | rain mn in | humidity % | barometer mb |
| 20260505153026 | 63 | 354 | 4.0 | 8.0 | 0.00 | 0.00 | 0.00 | 48 | 1011.9 |
| 20260505152021 | 64 | 312 | 6.0 | 13.0 | 0.00 | 0.00 | 0.00 | 48 | 1011.9 |
| 20260505151022 | 63 | 218 | 3.0 | 9.0 | 0.00 | 0.00 | 0.00 | 49 | 1011.9 |
| 20260505124017 | 61 | 346 | 2.0 | 5.0 | 0.00 | 0.00 | 0.00 | 56 | 1012.4 |
| 20260505123017 | 62 | 315 | 4.0 | 14.0 | 0.00 | 0.00 | 0.00 | 58 | 1012.5 |
| 20260505122017 | 61 | 222 | 4.0 | 10.0 | 0.00 | 0.00 | 0.00 | 58 | 1012.5 |
| 20260505121024 | 62 | 348 | 6.0 | 15.0 | 0.00 | 0.00 | 0.00 | 57 | 1012.5 |
| 20260505120023 | 62 | 316 | 4.0 | 9.0 | 0.00 | 0.00 | 0.00 | 57 | 1012.6 |
| 20260505115129 | 61 | 37 | 4.0 | 14.0 | 0.00 | 0.00 | 0.00 | 59 | 1012.7 |
| 20260505114017 | 60 | 11 | 5.0 | 14.0 | 0.00 | 0.00 | 0.00 | 61 | 1012.8 |
| 20260505113038 | 60 | 163 | 4.0 | 7.0 | 0.00 | 0.00 | 0.00 | 60 | 1012.8 |
| 20260505112018 | 60 | 313 | 4.0 | 9.0 | 0.00 | 0.00 | 0.00 | 61 | 1012.9 |
| 20260505111018 | 60 | 49 | 4.0 | 9.0 | 0.00 | 0.00 | 0.00 | 60 | 1013.0 |
| 20260505102048 | 59 | 144 | 4.0 | 7.0 | 0.00 | 0.00 | 0.00 | 62 | 1013.0 |
| 20260505101029 | 59 | 340 | 2.0 | 5.0 | 0.00 | 0.00 | 0.00 | 65 | 1013.0 |
| 20260505100059 | 59 | 348 | 6.0 | 17.0 | 0.00 | 0.00 | 0.00 | 65 | 1013.0 |
| 20260505095029 | 58 | 70 | 3.0 | 6.0 | 0.00 | 0.00 | 0.00 | 68 | 1013.0 |
| 20260505094049 | 57 | 55 | 2.0 | 6.0 | 0.00 | 0.00 | 0.00 | 69 | 1013.0 |
| 20260505093029 | 58 | 248 | 3.0 | 5.0 | 0.00 | 0.00 | 0.00 | 71 | 1013.0 |
| 20260505092029 | 58 | 342 | 3.0 | 9.0 | 0.00 | 0.00 | 0.00 | 72 | 1013.0 |
| 20260505091019 | 58 | 18 | 5.0 | 10.0 | 0.00 | 0.00 | 0.00 | 74 | 1013.1 |
| 20260505090019 | 57 | 346 | 2.0 | 5.0 | 0.00 | 0.00 | 0.00 | 75 | 1013.1 |
| 20260505085019 | 56 | 336 | 6.0 | 15.0 | 0.00 | 0.00 | 0.00 | 76 | 1013.1 |
| 20260505084019 | 56 | 348 | 7.0 | 13.0 | 0.00 | 0.00 | 0.00 | 78 | 1013.1 |
| 20260505083020 | 56 | 342 | 6.0 | 13.0 | 0.00 | 0.00 | 0.00 | 80 | 1013.0 |
| 20260505082020 | 55 | 341 | 7.0 | 14.0 | 0.00 | 0.00 | 0.00 | 82 | 1013.0 |
| 20260505081020 | 55 | 334 | 6.0 | 15.0 | 0.00 | 0.00 | 0.00 | 82 | 1013.0 |
| 20260505080017 | 55 | 51 | 5.0 | 7.0 | 0.00 | 0.00 | 0.00 | 84 | 1012.9 |
| 20260505075020 | 54 | 337 | 5.0 | 9.0 | 0.00 | 0.00 | 0.00 | 85 | 1012.9 |
| 20260505074100 | 53 | 359 | 5.0 | 12.0 | 0.00 | 0.00 | 0.00 | 87 | 1012.9 |
| 20260505073020 | 53 | 351 | 6.0 | 12.0 | 0.00 | 0.00 | 0.00 | 88 | 1012.8 |
| 20260505072021 | 53 | 344 | 5.0 | 14.0 | 0.00 | 0.00 | 0.00 | 89 | 1013.0 |
| 20260505071020 | 53 | 358 | 5.0 | 14.0 | 0.00 | 0.00 | 0.00 | 90 | 1013.1 |
| 20260505070100 | 52 | 350 | 4.0 | 9.0 | 0.00 | 0.00 | 0.00 | 91 | 1013.1 |
| 20260505065021 | 52 | 346 | 3.0 | 8.0 | 0.00 | 0.00 | 0.00 | 92 | 1013.2 |
| 20260505064021 | 51 | 360 | 6.0 | 11.0 | 0.00 | 0.00 | 0.00 | 92 | 1013.1 |
| 20260505063021 | 51 | 353 | 5.0 | 11.0 | 0.00 | 0.00 | 0.00 | 93 | 1013.0 |
| 20260505062041 | 51 | 340 | 5.0 | 11.0 | 0.00 | 0.00 | 0.00 | 93 | 1013.0 |
| 20260505061021 | 51 | 350 | 5.0 | 11.0 | 0.00 | 0.00 | 0.00 | 93 | 1013.1 |
| 20260505060018 | 51 | 329 | 3.0 | 9.0 | 0.00 | 0.00 | 0.00 | 93 | 1013.1 |
| 20260505055021 | 51 | 343 | 3.0 | 11.0 | 0.00 | 0.00 | 0.00 | 93 | 1013.0 |
| 20260505054021 | 51 | 355 | 4.0 | 8.0 | 0.00 | 0.00 | 0.00 | 93 | 1012.9 |
| 20260505053018 | 51 | 12 | 4.0 | 7.0 | 0.00 | 0.00 | 0.00 | 94 | 1012.9 |
| 20260505052042 | 51 | 351 | 5.0 | 9.0 | 0.00 | 0.00 | 0.00 | 94 | 1013.1 |
| 20260505051021 | 51 | 14 | 3.0 | 6.0 | 0.00 | 0.00 | 0.00 | 94 | 1013.0 |
| 20260505041019 | 51 | 344 | 3.0 | 6.0 | 0.00 | 0.00 | 0.00 | 94 | 1013.4 |
| 20260505040040 | 51 | 11 | 3.0 | 7.0 | 0.00 | 0.00 | 0.00 | 94 | 1013.6 |
| 20260505035022 | 52 | 17 | 3.0 | 9.0 | 0.00 | 0.00 | 0.00 | 94 | 1013.7 |
| 20260505034019 | 52 | 348 | 3.0 | 5.0 | 0.00 | 0.00 | 0.00 | 94 | 1013.8 |
| 20260505033020 | 52 | 21 | 2.0 | 6.0 | 0.00 | 0.00 | 0.00 | 94 | 1013.8 |
| 20260505032020 | 52 | 16 | 1.0 | 4.0 | 0.00 | 0.00 | 0.00 | 94 | 1013.9 |
| 20260505031020 | 52 | 94 | 1.0 | 4.0 | 0.00 | 0.00 | 0.00 | 94 | 1013.9 |
| 20260505030020 | 52 | 7 | 1.0 | 4.0 | 0.00 | 0.00 | 0.00 | 94 | 1014.0 |
| 20260505025020 | 52 | 16 | 2.0 | 4.0 | 0.00 | 0.00 | 0.00 | 94 | 1014.1 |
| 20260505024020 | 52 | 52 | 1.0 | 4.0 | 0.00 | 0.00 | 0.00 | 94 | 1014.1 |
| 20260505023020 | 52 | 51 | 0.0 | 2.0 | 0.00 | 0.00 | 0.00 | 95 | 1014.1 |
| 20260505022020 | 52 | 245 | 0.0 | 1.0 | 0.00 | 0.00 | 0.00 | 95 | 1014.1 |
| 20260505021021 | 52 | 9 | 2.0 | 5.0 | 0.00 | 0.00 | 0.00 | 95 | 1014.2 |
| 20260505020021 | 52 | 0.0 | 0.0 | 0.00 | 0.00 | 0.00 | 95 | 1014.2 | |
| 20260505015021 | 52 | 6 | 2.0 | 4.0 | 0.00 | 0.00 | 0.00 | 95 | 1014.2 |
| 20260505014021 | 52 | 15 | 2.0 | 4.0 | 0.00 | 0.00 | 0.00 | 95 | 1014.3 |
| 20260505013021 | 52 | 67 | 1.0 | 2.0 | 0.00 | 0.00 | 0.00 | 95 | 1014.3 |
| 20260505012021 | 53 | 58 | 1.0 | 4.0 | 0.00 | 0.00 | 0.00 | 95 | 1014.4 |
| 20260505011021 | 53 | 79 | 2.0 | 4.0 | 0.00 | 0.00 | 0.00 | 95 | 1014.6 |
| 20260505010022 | 53 | 343 | 1.0 | 2.0 | 0.00 | 0.00 | 0.00 | 95 | 1014.4 |
| 20260505005022 | 53 | 89 | 2.0 | 5.0 | 0.00 | 0.00 | 0.00 | 95 | 1014.5 |
| 20260505004022 | 53 | 15 | 2.0 | 4.0 | 0.00 | 0.00 | 0.00 | 95 | 1014.6 |
| 20260505003022 | 53 | 358 | 1.0 | 4.0 | 0.00 | 0.00 | 0.00 | 95 | 1014.8 |
| 20260505002022 | 53 | 25 | 2.0 | 5.0 | 0.00 | 0.00 | 0.00 | 96 | 1015.1 |
| 20260505001023 | 52 | 55 | 1.0 | 2.0 | 0.00 | 0.00 | 0.00 | 96 | 1015.0 |
| 20260505000022 | 52 | 9 | 2.0 | 6.0 | 0.00 | 0.00 | 0.00 | 96 | 1014.9 |
| 20260504235023 | 52 | 80 | 3.0 | 6.0 | 0.00 | 0.00 | 0.00 | 96 | 1015.0 |
| 20260504234023 | 52 | 60 | 2.0 | 5.0 | 0.00 | 0.00 | 0.00 | 96 | 1015.0 |
| 20260504233020 | 53 | 76 | 2.0 | 6.0 | 0.00 | 0.00 | 0.00 | 96 | 1014.9 |
| 20260504232037 | 53 | 98 | 5.0 | 10.0 | 0.00 | 0.00 | 0.00 | 96 | 1014.9 |
| 20260504231018 | 53 | 90 | 4.0 | 10.0 | 0.00 | 0.00 | 0.00 | 96 | 1015.0 |
| 20260504230017 | 53 | 92 | 3.0 | 8.0 | 0.00 | 0.00 | 0.00 | 97 | 1014.8 |
| 20260504225018 | 53 | 74 | 2.0 | 7.0 | 0.00 | 0.00 | 0.00 | 97 | 1014.9 |
| 20260504224038 | 53 | 48 | 1.0 | 5.0 | 0.00 | 0.00 | 0.00 | 97 | 1014.9 |
| 20260504223038 | 53 | 73 | 2.0 | 7.0 | 0.00 | 0.00 | 0.00 | 97 | 1015.1 |
| 20260504222018 | 54 | 96 | 2.0 | 11.0 | 0.00 | 0.00 | 0.00 | 98 | 1015.2 |
| 20260504221018 | 54 | 21 | 1.0 | 5.0 | 0.00 | 0.00 | 0.00 | 98 | 1015.3 |
| 20260504220018 | 54 | 85 | 2.0 | 7.0 | 0.00 | 0.00 | 0.00 | 98 | 1015.3 |
| 20260504215018 | 54 | 85 | 1.0 | 3.0 | 0.00 | 0.00 | 0.00 | 98 | 1015.3 |
| 20260504214019 | 54 | 75 | 1.0 | 4.0 | 0.00 | 0.00 | 0.00 | 98 | 1015.3 |
| 20260504213019 | 54 | 31 | 1.0 | 5.0 | 0.00 | 0.00 | 0.00 | 98 | 1015.3 |
| 20260504212019 | 54 | 22 | 4.0 | 6.0 | 0.00 | 0.00 | 0.00 | 98 | 1015.3 |
| 20260504211016 | 54 | 18 | 4.0 | 6.0 | 0.00 | 0.00 | 0.00 | 98 | 1015.2 |
| 20260504210039 | 54 | 0.0 | 0.0 | 0.00 | 0.00 | 0.00 | 98 | 1015.2 | |
| 20260504205019 | 54 | 53 | 0.0 | 2.0 | 0.00 | 0.00 | 0.00 | 97 | 1015.3 |
| 20260504204019 | 54 | 30 | 1.0 | 4.0 | 0.00 | 0.00 | 0.00 | 97 | 1015.2 |
| 20260504203039 | 54 | 20 | 1.0 | 6.0 | 0.00 | 0.00 | 0.00 | 97 | 1015.0 |
| 20260504202036 | 54 | 21 | 4.0 | 6.0 | 0.00 | 0.00 | 0.00 | 97 | 1015.0 |
| 20260504201017 | 54 | 30 | 1.0 | 4.0 | 0.00 | 0.00 | 0.00 | 97 | 1015.0 |
| 20260504200020 | 54 | 39 | 1.0 | 4.0 | 0.00 | 0.00 | 0.00 | 97 | 1015.0 |
| 20260504195020 | 54 | 34 | 1.0 | 4.0 | 0.00 | 0.00 | 0.00 | 97 | 1015.0 |
| 20260504194017 | 54 | 39 | 1.0 | 5.0 | 0.00 | 0.00 | 0.00 | 97 | 1014.9 |
| 20260504193017 | 54 | 87 | 0.0 | 2.0 | 0.00 | 0.00 | 0.00 | 96 | 1014.7 |
| 20260504192037 | 54 | 48 | 0.0 | 4.0 | 0.00 | 0.00 | 0.00 | 96 | 1014.6 |
| 20260504191017 | 54 | 36 | 1.0 | 4.0 | 0.00 | 0.00 | 0.00 | 96 | 1014.7 |
| 20260504190018 | 54 | 59 | 0.0 | 3.0 | 0.00 | 0.00 | 0.00 | 96 | 1014.6 |
| 20260504185018 | 54 | 99 | 0.0 | 4.0 | 0.00 | 0.00 | 0.00 | 95 | 1014.6 |
| 20260504184018 | 54 | 68 | 0.0 | 1.0 | 0.00 | 0.00 | 0.00 | 95 | 1014.5 |
| 20260504183018 | 55 | 36 | 0.0 | 3.0 | 0.00 | 0.00 | 0.00 | 95 | 1014.6 |
| 20260504182018 | 55 | 42 | 1.0 | 4.0 | 0.00 | 0.00 | 0.00 | 95 | 1014.7 |
| 20260504181018 | 55 | 56 | 0.0 | 1.0 | 0.00 | 0.00 | 0.00 | 95 | 1014.6 |
| 20260504180018 | 55 | 54 | 0.0 | 1.0 | 0.00 | 0.00 | 0.00 | 95 | 1014.5 |
| 20260504175018 | 55 | 26 | 0.0 | 3.0 | 0.00 | 0.00 | 0.00 | 94 | 1014.7 |
| 20260504174019 | 55 | 46 | 0.0 | 4.0 | 0.00 | 0.00 | 0.00 | 94 | 1014.6 |
| 20260504173018 | 55 | 83 | 2.0 | 4.0 | 0.00 | 0.00 | 0.00 | 94 | 1014.7 |
| 20260504172019 | 55 | 70 | 0.0 | 3.0 | 0.00 | 0.00 | 0.00 | 94 | 1014.6 |
| 20260504171019 | 55 | 1 | 1.0 | 4.0 | 0.00 | 0.00 | 0.00 | 94 | 1014.7 |